Theta_e
308 308 311 315 317 318 319 319 320 323 322 320 322 318 314 319 322 318 323 333 336 337 337 340 341 340 345 348 348 347 348 351 353 353 352 350 347 347 348 348 346 340 339 338 336 335 334 334 333 333 335 338 341 343 343 342 340 340 339 339 339 340 338 332 330 329 327 327 329 331 332 333 334 334 334 333 333 334 337 339 339 338 338 338 339 339 337 338 337 333 327 319 316 324 326 324 325
308 308 310 314 316 319 322 321 323 323 318 320 320 318 318 321 322 319 324 331 335 336 338 339 339 341 342 343 345 347 349 347 348 350 349 349 349 348 348 349 345 340 339 337 336 336 334 334 333 334 335 338 341 343 344 341 340 340 339 339 339 340 338 333 330 330 328 328 329 331 332 333 334 335 335 336 336 336 338 341 341 340 339 337 337 338 338 338 338 336 328 318 315 321 325 324 326
308 308 309 316 317 317 322 323 327 323 317 320 319 320 321 319 320 326 331 331 334 335 336 335 336 337 340 347 347 349 350 346 346 347 348 349 350 349 349 349 345 340 339 338 337 337 335 333 333 333 335 338 341 343 344 343 341 340 340 340 339 340 339 334 331 330 329 329 330 332 332 332 334 334 335 335 336 336 338 341 342 342 341 338 337 337 338 338 338 338 331 319 317 322 325 325 327
308 309 309 316 320 318 323 326 332 327 319 320 319 322 321 322 326 328 331 330 332 332 332 332 332 333 339 347 345 348 349 346 347 347 348 348 349 350 349 348 344 341 340 339 338 338 336 334 333 333 335 337 340 343 344 344 343 342 341 340 340 340 339 335 332 331 330 330 332 333 332 332 334 334 334 333 333 335 338 341 342 341 341 340 337 335 336 338 338 338 333 322 320 326 328 327 329
308 313 310 314 323 321 322 324 329 326 322 322 320 322 320 327 332 327 329 330 330 330 330 331 333 331 336 339 338 348 350 346 348 347 348 348 349 350 349 349 345 342 341 340 339 339 337 334 333 333 335 337 339 343 344 345 345 344 342 341 340 340 339 336 334 333 332 332 334 334 333 333 335 334 334 333 332 333 337 339 339 339 340 339 336 334 335 337 338 338 335 327 322 325 330 330 330
310 315 312 313 321 319 322 324 325 323 322 323 320 321 318 323 328 326 328 328 328 329 330 331 333 333 336 336 337 346 347 346 347 347 349 348 350 350 349 349 346 343 342 341 340 339 337 335 333 333 335 337 340 342 344 345 345 345 343 342 340 340 339 336 335 334 333 333 334 334 334 334 335 335 335 334 332 332 336 337 336 336 337 338 337 335 335 337 337 337 335 331 326 323 325 328 328
311 316 317 317 320 318 324 327 324 324 322 321 318 318 316 317 324 327 328 328 329 328 329 331 331 335 337 338 341 343 343 346 347 347 349 349 350 349 349 348 347 344 343 342 340 339 337 334 333 334 336 338 340 342 344 345 345 345 344 343 341 340 339 337 336 335 334 334 335 335 334 336 336 336 336 335 334 335 336 337 335 335 336 337 338 335 334 336 335 336 336 332 330 324 321 322 323
311 317 321 319 322 319 323 324 321 323 322 320 317 317 318 317 324 328 329 330 329 327 328 331 332 338 338 338 344 344 343 345 346 348 348 349 349 349 348 348 347 346 345 344 341 340 338 335 334 335 337 339 341 342 343 345 345 345 345 343 341 341 339 337 336 335 335 334 335 335 335 336 337 336 337 335 334 336 337 337 336 335 335 335 336 335 334 334 334 335 336 333 332 328 322 320 319
311 317 321 319 324 320 319 320 317 319 319 319 317 318 321 319 322 325 327 327 327 327 329 332 335 341 340 340 344 343 344 346 346 348 348 348 349 348 348 348 348 348 347 346 343 340 338 335 334 336 338 339 341 341 343 344 345 345 345 343 342 341 340 338 336 336 335 335 335 336 336 337 338 337 337 335 334 336 337 337 336 335 335 334 334 335 333 332 333 333 334 333 333 329 324 321 318
314 316 320 321 322 320 319 319 317 318 316 316 316 316 318 317 320 323 325 326 326 327 329 332 336 339 339 340 341 341 345 346 347 347 348 348 348 347 348 347 347 347 347 347 344 340 339 336 334 335 337 339 340 340 341 343 344 345 345 344 342 341 340 338 337 337 335 335 336 335 336 337 338 338 337 336 334 336 337 338 337 336 335 334 335 334 332 331 331 332 332 332 333 331 325 322 318
317 316 317 318 319 319 321 321 319 319 317 316 315 315 315 315 321 324 325 326 326 328 330 333 336 337 337 338 337 338 345 347 347 347 347 346 346 345 345 345 345 345 346 346 344 340 339 337 335 334 335 337 338 338 340 341 343 344 344 344 342 340 339 339 338 337 336 335 336 336 336 336 337 338 338 337 335 336 337 338 337 337 336 335 334 334 332 331 330 331 331 331 334 332 327 324 321
318 317 315 317 320 320 322 322 320 321 318 317 316 317 317 315 322 325 325 326 326 328 330 331 333 334 336 337 334 335 341 345 346 347 346 345 344 344 344 344 344 344 345 345 344 340 338 336 336 336 336 336 337 338 339 339 341 342 343 344 343 340 339 339 339 338 338 336 336 336 336 336 337 338 339 337 337 337 337 338 337 336 336 335 333 332 333 331 330 329 330 331 333 333 328 325 323
316 318 316 318 322 321 320 318 318 320 318 317 316 316 317 316 321 325 325 324 325 327 326 328 330 333 335 334 331 331 334 341 345 345 345 344 344 343 343 344 343 344 344 344 343 340 338 336 335 336 337 337 338 338 338 338 339 340 341 342 342 341 339 339 339 339 339 338 337 337 337 337 337 337 338 338 338 337 337 337 336 335 335 335 333 331 332 332 329 328 329 330 330 333 330 325 323
315 318 318 318 321 320 318 316 316 317 315 316 315 315 317 317 319 322 324 324 324 326 326 328 329 331 332 330 331 330 328 335 343 342 342 343 342 342 342 343 343 343 344 343 341 340 338 337 336 335 336 337 337 337 338 338 337 338 339 340 341 340 340 340 340 339 338 338 337 337 337 336 337 337 337 338 338 338 337 336 335 334 333 334 333 332 332 331 330 327 328 328 329 332 331 325 323
314 317 317 318 318 317 317 317 316 315 315 317 315 316 318 318 319 321 323 324 325 324 325 327 327 331 332 331 331 327 322 330 341 339 336 339 340 342 342 343 343 343 343 343 342 340 339 338 337 336 335 335 335 335 336 337 337 337 338 338 338 339 339 340 340 339 337 337 337 337 337 337 337 337 337 337 337 337 336 335 334 332 332 334 334 333 331 330 329 327 326 329 330 331 329 325 323
314 314 314 315 314 314 316 317 317 316 316 317 316 317 318 318 319 321 321 323 324 323 326 326 325 328 330 329 328 323 321 329 340 340 339 341 340 342 343 343 343 343 343 343 343 341 340 339 339 337 336 335 334 334 334 336 337 336 337 336 335 337 339 340 339 338 337 337 338 338 337 336 336 337 337 336 336 336 334 334 334 331 331 334 333 332 330 329 329 327 326 330 331 328 326 324 323
313 312 312 313 314 314 315 317 316 315 315 316 317 318 318 319 321 322 322 322 324 324 326 325 324 326 327 326 324 321 321 326 335 338 338 339 339 339 341 343 343 343 343 343 343 342 342 341 340 340 339 336 334 334 332 333 335 336 337 335 334 336 338 339 338 337 338 339 339 338 337 337 336 336 337 336 335 335 332 333 333 329 330 332 333 331 330 329 328 327 326 329 329 325 324 324 324
313 315 313 312 316 315 315 317 316 316 315 316 317 318 318 320 322 322 323 323 324 325 325 325 325 325 324 323 321 320 321 322 326 328 327 327 327 327 331 339 343 343 343 343 343 343 343 343 342 341 340 339 337 335 333 332 333 334 334 333 333 334 335 336 336 337 338 339 339 338 338 337 336 335 336 335 334 335 334 333 332 329 329 331 331 331 331 329 327 327 326 328 327 324 323 322 322
314 317 315 314 317 315 314 316 316 316 315 316 317 317 318 320 321 321 324 325 325 326 325 325 325 324 322 322 321 320 321 320 321 320 320 320 320 319 321 330 339 342 342 341 341 342 342 342 342 341 341 341 340 338 336 334 333 333 333 332 332 333 335 334 332 334 336 337 337 337 337 336 336 335 335 334 334 336 336 334 332 331 330 329 330 331 332 329 326 326 326 327 325 323 322 321 321
313 314 314 316 316 314 315 316 315 316 314 316 317 316 317 317 318 320 324 325 325 326 326 325 325 325 323 322 321 320 320 320 319 319 319 319 320 319 319 322 328 333 336 338 340 339 339 340 340 340 340 340 341 340 339 338 336 335 334 332 332 332 335 334 330 332 335 334 334 335 335 335 334 334 334 334 334 336 336 335 333 332 330 328 328 328 328 327 326 326 326 326 324 322 322 322 320
313 314 314 316 314 313 316 315 316 316 315 316 316 316 318 316 317 320 324 325 326 326 325 326 325 324 324 324 323 321 320 320 320 320 320 320 320 320 319 319 320 323 329 333 337 338 337 337 337 337 338 338 339 339 339 340 339 338 336 335 334 332 333 333 331 333 336 335 334 334 335 335 334 335 335 335 334 335 336 335 334 333 331 329 326 324 323 324 327 327 326 326 324 321 323 323 322
312 314 315 314 313 314 315 315 316 315 316 317 316 316 316 316 316 317 321 325 325 325 324 325 324 324 324 325 324 323 324 323 322 321 321 320 320 320 319 319 318 319 323 325 329 333 335 337 336 336 336 336 337 337 338 340 341 340 338 337 336 334 333 333 331 334 337 337 336 336 336 336 336 337 336 336 335 335 335 335 334 333 332 329 325 323 320 321 326 326 325 325 323 321 323 325 326
312 313 313 313 313 314 314 316 317 316 316 316 316 316 315 317 316 315 322 323 321 323 324 324 323 323 322 323 325 328 330 327 323 320 320 319 319 320 319 319 318 318 319 320 322 326 330 332 333 335 335 335 335 336 338 339 340 340 340 339 337 335 335 334 333 336 338 337 337 337 337 337 337 337 337 337 335 335 335 335 334 333 333 329 325 323 319 320 324 324 324 324 322 321 323 326 329
312 311 312 313 313 313 313 315 317 316 315 315 316 316 316 316 315 318 325 324 320 322 324 324 323 322 323 325 329 331 329 325 321 318 318 319 319 320 319 319 318 318 319 320 321 323 324 325 327 329 331 334 335 335 337 339 339 340 340 340 338 336 336 335 334 337 339 337 336 336 337 337 337 337 336 336 335 336 336 336 335 334 334 330 326 324 320 319 322 322 322 323 323 323 324 327 329
312 311 312 313 313 313 314 316 317 316 315 316 319 318 317 315 316 320 324 323 323 324 324 324 323 323 326 329 331 329 326 322 319 318 318 319 320 319 319 318 318 318 320 321 321 323 323 322 323 325 329 335 335 335 336 338 339 339 340 340 339 338 337 336 335 337 338 337 336 336 336 336 335 336 335 335 335 336 336 336 335 334 334 331 327 326 322 320 321 320 321 323 324 325 326 327 328
314 312 312 312 314 314 315 316 316 316 316 317 318 319 317 315 316 318 321 323 324 324 324 324 324 325 327 330 331 328 328 325 319 320 320 320 320 319 318 317 317 318 318 320 320 321 322 322 323 325 330 335 333 332 333 335 338 339 339 339 339 339 338 337 337 338 338 338 337 336 336 336 335 335 335 335 335 335 335 335 335 335 335 332 329 328 325 322 322 322 321 323 324 325 326 327 328
315 313 313 313 315 315 315 316 316 316 316 316 315 317 318 316 316 316 319 323 323 324 324 323 324 326 326 329 329 325 326 325 319 320 320 319 319 318 318 317 317 318 317 318 319 319 321 321 322 325 331 332 329 327 330 332 334 335 338 338 338 338 338 337 337 337 337 337 336 336 336 336 336 336 335 334 333 334 334 335 335 335 336 334 332 331 329 328 328 327 325 325 326 326 327 328 329
313 313 313 314 316 315 315 316 315 316 314 315 316 315 316 315 315 317 320 323 322 323 324 323 324 326 326 328 328 324 322 321 319 320 319 319 319 318 318 318 317 318 318 318 318 319 319 320 321 324 326 325 323 323 326 329 328 329 331 333 334 335 335 335 336 336 336 336 336 336 336 336 336 336 335 334 333 334 334 334 335 335 336 335 335 334 331 331 332 331 330 328 329 330 330 330 330
312 314 314 316 319 316 315 316 315 315 314 315 315 314 318 318 314 316 320 322 322 322 323 323 324 325 326 328 327 325 322 319 319 320 319 319 319 318 318 318 318 318 318 318 318 318 317 319 321 321 322 322 321 320 323 326 324 323 324 325 327 330 332 332 334 335 335 335 335 335 334 334 335 335 335 334 334 334 334 334 334 334 335 335 336 334 331 332 332 332 332 330 330 332 333 332 331
312 314 314 316 317 318 317 316 315 315 315 315 314 315 321 322 315 315 316 319 322 322 322 322 324 325 325 328 326 324 321 318 319 319 320 320 319 319 318 318 318 318 318 318 319 318 317 319 320 319 321 321 320 319 320 322 321 321 322 321 323 327 329 328 328 330 330 329 330 330 328 329 333 335 335 335 335 335 335 334 334 334 334 334 336 334 330 330 332 332 333 331 331 331 332 332 332
314 312 318 317 312 318 321 314 315 314 314 315 313 314 319 321 317 314 312 317 322 322 323 322 323 325 325 327 325 323 321 318 319 320 320 320 319 319 318 318 318 318 319 318 319 318 315 317 319 318 319 320 319 317 317 318 319 319 320 321 322 324 324 322 321 322 322 325 328 325 324 326 330 333 335 335 335 336 336 335 335 335 335 334 335 335 331 329 330 332 332 331 331 332 332 332 332
316 311 320 323 311 315 319 313 316 315 313 314 312 314 316 315 317 316 311 314 320 322 322 322 323 324 325 326 323 322 321 318 318 320 321 320 320 320 319 318 318 318 318 318 318 316 313 315 318 318 317 317 317 315 315 315 316 316 319 321 321 322 321 319 319 320 321 325 328 325 325 327 326 329 332 334 335 335 336 336 335 336 336 335 335 336 334 331 330 332 332 331 332 332 332 333 332
324 315 317 322 313 312 315 313 316 315 313 312 313 318 319 317 317 318 315 313 317 320 321 322 324 324 325 325 323 322 322 320 319 320 321 321 321 320 320 319 319 319 319 318 317 315 313 314 317 317 316 316 315 314 313 313 313 315 317 318 319 320 319 318 319 322 323 327 328 327 327 327 326 328 330 332 334 334 335 336 335 336 336 336 335 335 335 334 332 332 332 331 330 331 332 333 332
327 325 318 320 317 312 313 314 315 313 313 313 312 317 320 319 319 319 317 313 313 317 319 322 324 323 324 324 322 322 322 322 321 320 321 321 321 321 320 320 319 319 318 317 316 314 313 314 314 315 315 315 314 314 314 314 314 316 317 315 315 317 317 318 321 323 326 327 327 326 326 327 326 327 328 331 333 333 334 334 334 335 335 335 335 334 333 333 332 332 332 332 331 331 332 332 331
323 326 323 323 321 315 314 316 315 312 312 314 313 315 317 318 322 322 317 313 313 315 318 322 323 323 323 323 322 321 321 321 320 320 321 321 321 320 320 320 319 319 317 315 315 313 312 312 312 312 313 314 315 316 318 317 317 317 317 315 314 316 317 318 319 322 324 324 324 324 324 324 325 326 327 329 330 330 331 332 333 334 332 332 334 334 333 333 333 332 332 332 332 332 332 332 331
321 324 325 322 319 319 319 317 317 315 311 314 314 312 315 315 320 323 317 316 315 316 319 322 323 322 322 323 323 321 322 321 319 319 321 321 321 320 320 319 319 318 315 315 315 313 310 310 311 312 313 315 316 318 319 319 319 318 319 317 314 315 317 317 317 319 322 322 322 322 321 321 322 324 325 326 327 327 328 329 330 331 330 330 332 333 333 333 333 334 333 333 333 332 332 331 331
326 324 323 319 317 318 318 316 320 321 312 314 318 314 315 317 320 325 322 319 317 316 320 322 322 322 320 322 323 321 322 321 318 319 320 321 321 320 319 319 318 317 315 315 315 312 309 309 312 314 316 316 317 318 319 319 319 317 318 316 313 314 317 317 315 317 319 319 320 322 322 320 319 321 322 322 323 325 326 326 327 328 330 330 330 330 331 333 334 335 334 334 333 332 332 332 332
329 325 319 317 319 316 318 322 324 326 321 319 322 320 320 324 325 328 325 319 318 318 318 319 320 321 319 320 323 321 322 321 319 320 321 320 321 320 319 319 318 317 316 315 313 310 309 310 313 316 317 317 318 318 319 319 317 314 315 313 311 313 315 314 312 314 317 316 316 319 321 319 318 320 321 320 321 322 324 324 324 325 328 329 329 329 329 330 332 332 332 333 334 333 332 332 333
327 326 320 318 321 317 324 336 330 329 329 323 324 323 326 333 329 325 324 320 325 327 322 319 319 320 319 319 321 322 322 322 321 322 321 320 321 320 319 319 318 317 316 315 312 311 311 311 314 317 318 318 319 320 320 319 315 312 313 311 311 312 313 312 313 315 317 317 317 318 319 318 318 319 320 320 321 322 323 323 323 324 325 326 327 328 328 328 328 328 327 328 330 331 331 331 333
326 322 318 321 324 318 321 333 333 332 327 321 323 324 330 338 331 325 323 321 326 329 327 325 321 319 319 318 320 321 322 321 321 323 322 320 320 320 319 319 318 317 317 315 313 315 314 312 314 317 318 320 320 319 321 320 314 312 313 312 312 311 311 314 316 316 317 318 318 318 319 319 318 317 317 319 320 320 321 322 322 323 323 323 324 325 326 326 326 326 326 326 327 327 329 330 332
333 327 318 320 323 320 321 326 333 337 332 328 324 324 338 347 331 324 324 320 320 323 323 325 322 320 319 318 318 319 321 321 321 323 323 320 320 320 319 319 318 317 318 316 314 316 315 312 313 316 319 321 319 317 319 318 313 312 313 314 314 314 315 317 317 317 317 317 317 317 318 316 315 314 315 318 319 318 319 320 321 322 323 322 322 322 323 323 323 324 325 327 327 328 330 330 330
332 335 327 324 325 325 325 324 325 327 329 332 322 319 341 351 331 324 326 321 321 320 319 321 321 320 319 319 319 319 320 320 320 322 322 320 320 320 319 318 318 317 317 316 314 315 316 312 311 315 320 321 317 314 316 314 313 312 311 313 315 316 318 318 316 315 316 316 315 315 314 313 314 315 315 315 317 317 317 318 319 320 321 321 321 321 321 321 322 322 322 323 324 326 329 331 331
322 333 335 329 327 324 324 324 324 323 324 329 324 318 332 339 328 325 325 322 323 320 318 320 318 318 320 320 319 319 320 320 320 322 322 321 321 320 319 318 318 317 317 316 316 317 318 316 312 313 318 321 317 314 314 313 312 311 309 312 314 314 316 315 313 313 314 314 313 312 311 312 314 315 316 316 316 316 316 317 317 317 318 319 319 319 319 320 320 321 320 320 320 321 324 327 329
321 336 333 324 324 321 324 325 323 325 323 327 331 322 322 328 326 324 322 320 323 321 319 320 318 317 319 319 319 319 319 320 320 322 323 321 321 320 320 319 318 317 317 317 317 318 319 320 317 314 316 319 319 316 315 314 312 309 310 313 314 314 313 311 310 310 310 309 309 310 311 312 313 312 313 315 315 315 315 315 316 316 316 317 317 318 318 318 319 319 320 320 320 319 319 321 323
327 342 330 321 323 322 327 323 319 325 319 322 337 326 317 326 330 327 323 319 321 323 321 321 319 316 317 317 318 318 318 319 320 322 323 322 320 321 320 320 319 318 317 317 317 318 319 320 321 319 318 318 319 318 317 316 314 309 312 316 314 315 314 309 308 308 307 307 307 310 312 313 313 311 310 311 311 312 311 311 312 313 313 313 313 313 313 314 315 316 317 318 319 319 318 319 319
330 336 324 321 325 324 326 318 318 327 320 321 334 326 316 324 331 328 321 318 321 324 322 322 320 316 315 316 316 317 317 318 320 321 322 321 320 321 321 321 320 319 318 317 318 318 319 321 322 322 321 319 319 318 318 318 316 309 312 319 317 317 316 310 308 309 308 307 308 309 311 313 313 312 311 309 308 309 309 309 309 308 308 307 307 307 307 308 310 310 312 314 316 317 317 318 318
324 322 318 324 329 330 333 327 320 322 324 327 328 322 319 321 328 329 321 319 321 321 320 319 319 316 314 315 316 316 316 318 320 320 321 321 320 321 321 321 321 320 320 319 319 319 320 321 322 323 323 322 320 319 318 319 317 310 312 320 319 318 317 312 310 311 310 309 308 309 310 313 314 314 313 311 309 310 310 311 311 309 309 307 306 306 306 307 310 312 312 312 313 314 315 316 316
322 321 321 324 326 329 337 335 323 317 325 332 325 320 320 319 325 326 323 323 321 318 318 317 321 319 315 315 316 315 316 317 319 321 321 321 321 321 321 321 322 322 322 321 321 321 321 322 323 323 324 324 323 321 318 319 317 312 314 320 318 315 316 314 312 312 312 311 309 308 310 313 315 315 314 312 311 312 313 314 314 312 312 310 307 307 308 309 311 312 312 311 311 311 311 312 313
319 321 323 322 320 322 328 329 324 321 324 328 325 321 320 321 323 321 320 322 319 318 318 318 323 321 316 316 316 315 316 317 319 321 321 322 322 322 321 321 322 322 323 323 322 322 323 323 324 324 325 325 324 322 320 319 318 314 315 320 318 314 315 315 314 313 313 313 311 310 311 313 314 314 314 313 313 313 314 315 315 313 311 309 308 309 310 309 308 308 309 309 309 309 309 310 312
314 316 321 322 320 317 321 323 320 321 323 326 326 321 321 325 324 322 322 320 318 318 317 318 322 320 318 317 316 316 317 317 319 321 321 322 321 321 321 322 322 322 323 324 323 323 324 324 324 325 325 325 325 323 321 321 320 317 316 319 317 314 315 315 315 314 314 314 313 312 312 312 313 314 313 313 314 314 314 314 312 311 310 309 309 309 307 306 306 308 309 310 310 310 310 310 311
316 316 317 319 324 322 321 321 318 321 323 325 322 319 326 329 324 322 319 316 316 316 316 318 320 320 320 317 314 315 316 317 319 321 321 321 320 320 321 322 322 323 323 324 324 324 324 324 325 325 325 325 325 324 323 322 322 319 317 318 317 315 315 315 316 315 314 314 314 313 312 311 312 314 314 313 314 313 312 311 310 310 311 310 309 307 306 306 307 308 309 310 310 310 309 309 309
319 317 313 315 322 324 321 320 322 324 324 324 321 322 330 328 323 322 316 314 317 315 317 320 319 320 321 319 317 315 316 317 319 321 322 321 319 319 321 321 322 323 323 324 324 324 324 324 324 324 324 325 325 325 324 323 322 320 317 318 319 317 316 316 316 315 314 314 315 314 313 311 312 314 313 312 312 312 310 310 310 310 309 308 307 306 306 307 308 309 310 310 310 310 309 309 309
323 317 313 315 315 316 318 320 324 321 320 322 319 321 328 323 320 322 316 315 318 315 317 318 317 318 318 317 318 317 317 317 318 320 321 322 320 319 320 320 321 322 323 324 324 324 324 324 324 324 324 325 324 324 324 323 322 321 318 318 319 318 317 317 316 315 314 314 315 316 314 313 314 315 313 312 312 311 309 309 308 308 307 307 306 307 307 308 308 309 310 310 310 310 310 309 309
320 315 315 319 318 319 320 321 324 320 319 324 321 320 326 322 321 323 317 317 318 317 318 316 315 316 316 316 317 317 318 319 322 323 321 321 320 319 320 320 320 322 323 324 325 325 325 324 325 324 324 325 324 324 324 324 323 321 319 318 318 318 317 316 316 315 314 314 316 316 315 314 315 314 314 313 312 309 308 308 308 307 307 307 307 308 308 308 308 308 308 308 309 309 309 309 309
311 312 314 317 321 324 320 317 321 320 318 324 325 322 321 321 323 321 316 318 319 318 319 317 315 314 314 316 316 317 318 319 322 325 325 323 319 318 320 320 320 321 322 324 325 325 325 324 325 325 324 325 325 325 324 323 323 322 320 319 318 318 317 316 316 316 315 314 315 316 315 314 314 313 313 312 310 308 308 308 308 307 307 307 308 309 309 308 307 307 307 307 307 307 308 308 308
310 311 312 316 321 322 318 316 319 319 317 322 325 322 321 325 325 319 317 318 318 319 321 320 318 315 314 314 315 316 317 316 317 320 325 325 319 317 319 320 321 321 322 324 325 325 326 325 325 325 325 325 325 324 324 324 323 322 321 320 319 318 317 316 316 316 316 315 314 315 315 314 314 313 311 309 308 309 309 308 307 307 307 308 308 309 308 307 307 306 306 306 307 307 307 307 307
312 313 313 316 318 317 317 317 316 320 322 324 324 322 325 330 325 320 319 317 317 319 320 320 320 318 316 315 316 316 314 314 316 317 322 324 320 318 319 319 320 322 322 323 325 325 326 325 325 325 325 325 325 324 324 324 324 323 321 321 320 319 317 316 316 316 316 315 314 313 314 314 313 312 310 308 309 310 309 307 307 307 308 308 308 308 308 307 306 306 306 306 306 306 306 306 306
310 312 311 312 316 316 316 316 320 324 324 325 324 322 327 329 324 322 321 317 317 318 318 319 319 318 318 316 316 316 313 313 315 317 321 321 318 317 320 320 320 322 322 323 325 326 326 326 326 325 325 325 325 325 324 324 324 323 322 321 321 320 318 317 317 317 316 314 313 313 313 313 313 311 309 309 309 309 308 308 308 309 309 309 308 308 307 307 306 306 306 306 306 306 306 306 306
Wind_Speed
9 5 3 6 8 7 5 2 1 2 2 1 3 1 4 5 5 4 2 3 1 3 2 7 6 6 9 10 12 10 9 3 3 4 3 4 12 20 19 16 20 24 22 20 18 16 14 12 12 13 14 14 16 17 16 16 16 16 16 15 13 13 13 13 12 12 13 13 13 13 14 14 15 15 14 13 13 13 14 14 15 16 16 17 16 15 16 16 15 15 17 18 18 18 18 19 22
7 5 5 6 6 2 1 2 2 2 2 3 3 2 5 3 5 5 4 5 4 4 7 12 12 13 14 12 10 12 11 7 4 4 5 14 18 19 20 19 23 24 22 21 18 16 14 13 12 13 14 14 16 18 17 16 16 16 16 15 14 13 13 13 12 12 13 12 12 12 13 13 14 14 14 13 12 12 12 13 14 15 15 16 15 14 15 16 15 15 18 19 18 18 18 19 22
6 5 5 4 3 1 0 2 2 1 2 3 4 4 5 4 5 3 6 9 9 8 8 10 11 8 10 10 8 9 5 4 9 7 8 17 15 16 23 22 25 24 22 21 18 16 15 13 12 13 15 15 16 18 18 16 15 15 15 15 14 14 13 13 12 12 12 12 12 11 12 12 13 13 13 12 12 12 11 12 13 14 15 15 15 15 14 15 15 15 17 19 18 19 20 20 23
6 6 6 4 2 2 3 2 2 3 3 4 3 5 5 3 4 10 9 8 8 7 5 6 7 4 9 15 7 7 6 3 8 8 7 11 13 20 25 23 24 24 23 21 19 17 15 14 13 13 15 15 16 18 19 17 15 14 14 15 15 15 14 14 12 12 12 12 11 11 12 11 12 12 12 11 11 11 10 13 13 13 14 14 14 14 14 14 14 15 16 18 18 19 20 21 22
5 6 4 2 3 1 2 1 1 4 4 4 3 6 6 4 7 9 7 6 4 6 6 5 5 4 9 10 3 5 6 5 7 9 9 11 18 24 23 23 24 24 24 21 20 18 15 14 13 14 15 15 16 18 19 17 15 14 14 14 15 15 15 14 13 12 11 11 11 11 11 11 11 11 11 11 10 10 9 11 12 11 12 13 13 14 13 13 14 14 15 17 17 18 19 19 20
6 6 2 2 1 1 2 1 2 3 5 5 3 6 7 5 5 8 9 6 4 7 11 9 8 8 8 5 5 4 7 8 7 10 14 18 22 23 21 23 23 24 24 22 21 18 16 14 14 14 16 16 16 17 18 17 15 14 13 13 14 15 15 15 13 12 11 10 10 10 11 11 10 10 10 10 10 10 10 10 10 9 10 11 11 12 12 12 12 13 14 15 15 16 17 17 17
8 5 2 2 2 0 3 3 4 4 4 5 4 5 9 9 2 10 11 9 7 8 12 10 10 11 6 3 5 4 10 12 9 13 21 24 24 23 22 23 23 24 23 22 21 19 17 14 15 15 16 17 17 17 17 16 15 14 13 13 14 15 15 14 13 12 11 10 10 10 10 11 10 10 10 10 10 10 10 10 10 9 9 9 10 11 11 11 11 12 13 13 13 13 15 15 14
6 2 1 3 2 1 2 3 4 3 4 5 4 7 12 9 3 7 10 9 5 5 9 9 12 14 6 4 5 4 12 16 17 21 26 26 25 24 23 25 24 23 22 21 20 19 17 15 15 16 17 17 17 17 16 16 16 15 13 13 14 14 15 15 13 12 11 11 10 9 9 11 10 10 11 10 10 10 9 9 10 9 8 8 8 9 10 10 10 11 12 12 11 12 13 13 13
3 1 1 2 1 2 1 4 4 4 5 5 6 10 11 10 7 6 8 8 6 7 7 7 13 14 6 10 8 4 12 20 25 25 26 25 25 25 24 24 23 22 20 19 20 20 18 16 15 16 18 18 17 17 16 17 16 16 14 13 14 14 15 15 14 12 11 11 10 9 9 10 10 10 11 11 11 10 9 8 9 9 8 7 7 9 9 9 9 9 10 10 11 11 11 11 12
2 1 0 1 2 2 3 4 4 4 6 6 9 11 10 11 9 7 11 10 9 8 5 6 14 14 11 11 6 4 13 23 27 23 23 25 24 24 23 21 21 21 20 19 20 21 18 16 15 16 17 18 18 17 17 17 16 15 14 14 13 13 14 14 13 12 11 11 10 9 9 9 9 9 10 11 11 10 9 8 8 8 8 7 7 9 9 9 8 8 8 10 11 11 10 10 12
2 2 1 1 2 1 3 4 5 5 7 6 8 12 10 10 3 8 14 12 9 11 9 11 14 14 13 9 4 9 20 24 25 23 23 24 23 23 22 20 17 18 19 19 21 21 19 16 15 15 15 16 17 17 17 16 16 15 14 13 12 12 13 12 12 12 11 10 9 9 9 8 8 9 10 11 10 10 9 8 8 8 7 8 8 7 8 7 7 7 8 10 11 10 10 10 11
2 3 3 2 1 3 3 3 5 6 7 6 9 11 10 8 8 13 16 13 11 13 10 10 11 11 13 7 4 12 21 22 24 26 24 23 22 20 19 18 15 15 17 19 21 21 19 17 15 15 14 15 15 16 16 16 15 15 14 13 12 12 12 11 11 12 10 9 9 9 9 8 8 9 9 10 10 10 10 9 8 7 7 9 8 6 6 5 6 6 7 9 11 10 9 10 11
2 2 4 1 3 3 3 3 5 5 7 6 8 9 8 5 11 15 15 15 14 12 7 11 14 10 11 6 5 10 16 20 26 27 25 24 21 19 17 16 15 13 16 20 22 20 18 17 16 15 14 15 15 14 14 14 14 13 13 13 12 12 11 11 11 12 10 9 8 9 9 8 8 8 9 9 9 9 9 9 9 8 7 8 8 6 5 4 5 5 6 8 10 10 10 10 10
3 3 4 1 2 1 3 3 4 3 6 8 8 9 6 1 11 12 15 14 7 8 8 13 16 13 10 6 5 5 11 22 28 26 24 23 20 19 17 15 16 14 16 20 21 19 18 17 15 15 14 14 14 14 13 13 13 13 13 12 12 11 11 11 11 11 9 8 8 9 8 8 7 8 8 8 8 8 9 9 8 8 6 7 8 6 5 4 4 4 5 7 10 11 10 11 10
5 1 4 1 3 2 3 3 5 4 6 9 7 2 5 5 10 10 12 14 4 4 9 10 9 11 10 10 7 7 14 26 29 27 24 21 20 20 18 16 15 16 17 19 19 18 18 17 15 14 13 13 13 13 13 13 12 12 12 11 12 11 11 11 10 10 9 9 9 9 8 7 7 7 8 7 7 7 7 8 8 7 5 8 9 6 6 5 5 5 5 8 11 11 10 10 10
4 1 2 1 2 2 3 3 4 4 6 8 7 4 14 7 8 8 2 12 9 2 4 4 2 7 13 11 13 17 25 32 30 29 26 23 21 20 19 17 16 16 16 17 18 18 18 17 16 14 13 13 13 13 13 12 12 11 11 10 11 11 11 11 10 10 9 10 10 9 8 7 8 7 8 7 7 7 7 8 8 6 5 8 8 6 6 6 6 6 6 9 12 12 10 9 9
2 1 1 2 3 3 3 2 3 3 8 9 7 5 16 7 8 8 5 12 12 4 5 1 2 8 12 10 21 29 33 35 33 31 27 25 22 19 18 18 17 16 15 15 15 17 18 17 16 15 14 14 13 13 13 12 12 11 10 10 10 10 10 10 9 9 9 11 11 9 8 8 8 8 8 7 7 7 7 8 7 6 5 7 7 6 7 6 7 7 7 10 12 11 9 9 9
2 1 2 3 4 5 3 3 4 2 9 8 4 2 13 12 7 7 8 12 11 10 8 8 11 10 13 18 28 32 33 36 34 31 26 24 22 20 18 18 19 17 16 14 13 14 16 17 15 14 14 14 14 14 14 13 12 11 11 10 10 10 10 10 9 9 9 11 11 10 9 9 9 8 8 8 7 8 8 8 7 6 6 7 7 7 7 7 8 8 9 11 11 10 10 9 9
3 2 2 4 5 4 3 4 6 3 8 8 3 3 7 12 7 5 7 9 12 13 8 12 15 12 14 19 24 27 30 30 29 28 24 21 21 20 19 19 19 18 16 14 13 12 13 15 13 13 14 13 14 14 14 13 13 12 11 11 10 10 10 9 9 9 9 9 10 9 10 9 9 9 9 9 8 8 8 7 7 6 6 7 7 7 7 7 9 10 11 12 11 11 11 10 9
2 3 2 5 4 2 4 5 6 5 7 7 5 2 6 7 3 5 9 11 13 13 10 12 15 13 13 13 18 24 25 22 23 24 20 19 21 21 21 22 22 20 17 15 15 13 12 13 12 11 11 11 12 13 13 13 14 13 13 12 11 11 11 10 9 9 9 8 8 8 9 10 10 9 9 9 9 9 9 8 8 7 7 7 7 7 7 7 10 12 12 12 12 12 11 9 8
1 3 4 6 3 3 7 7 8 6 5 7 5 4 5 4 3 8 12 10 7 11 15 18 18 18 16 12 14 19 19 17 18 19 18 18 18 20 23 23 23 22 20 17 15 13 13 12 11 10 9 9 10 11 12 13 14 14 14 13 12 11 11 11 10 10 9 8 8 8 9 10 10 9 9 9 9 10 10 10 9 9 8 8 8 7 7 8 10 13 13 13 13 12 11 9 8
2 4 6 7 5 5 8 8 8 6 4 7 7 6 2 1 5 6 11 8 6 9 13 21 23 20 19 16 13 14 14 13 14 15 16 16 17 18 20 22 22 22 21 19 16 14 13 12 11 10 9 8 8 9 11 12 13 14 15 15 13 12 11 11 11 11 9 8 9 9 11 11 11 10 10 10 10 11 11 11 11 10 9 9 9 7 7 8 11 13 14 14 13 12 11 9 7
3 6 7 7 6 6 5 4 6 3 5 5 4 4 2 5 6 1 5 4 8 10 11 17 20 20 21 17 14 13 12 11 12 16 17 18 18 18 19 20 20 20 19 18 17 16 15 13 11 10 9 8 7 8 9 11 12 13 15 15 14 13 12 12 13 12 9 8 9 10 11 12 12 11 12 12 11 12 12 11 12 12 11 11 10 9 8 9 10 12 13 14 13 13 12 10 7
6 7 9 8 8 9 6 4 5 0 6 1 1 4 5 5 4 1 4 1 7 12 10 12 14 16 18 14 11 11 12 12 14 18 20 21 22 22 21 20 19 18 18 17 17 17 17 15 13 11 9 9 8 7 8 9 11 11 13 14 14 15 15 14 13 12 10 8 8 11 12 13 13 13 13 13 12 12 12 12 13 14 13 13 12 10 9 9 10 12 12 13 14 14 13 11 9
6 9 10 7 7 8 7 6 5 1 3 1 5 6 5 3 6 3 3 3 11 15 13 13 13 13 12 11 11 10 10 12 14 17 19 21 25 24 22 21 19 19 19 18 17 16 14 13 12 11 9 10 10 8 8 8 9 11 12 13 14 15 16 15 15 14 11 9 9 11 12 13 13 13 13 13 12 12 13 14 14 15 15 14 14 12 11 10 11 12 13 14 14 14 13 12 10
7 10 10 7 5 6 7 6 4 2 1 3 6 4 5 3 6 4 1 6 14 16 16 15 15 13 11 10 11 11 11 11 13 16 18 22 26 24 21 21 20 19 19 17 15 14 12 11 10 11 10 11 11 10 9 8 8 9 11 12 12 13 15 16 15 14 13 11 11 11 12 11 11 12 13 13 13 13 14 15 16 17 17 16 15 14 13 12 12 13 13 14 15 14 14 12 11
6 10 10 7 5 5 6 4 3 3 1 4 4 3 6 2 3 2 2 7 14 16 15 14 14 14 12 11 10 12 12 13 17 19 19 20 23 23 21 20 19 18 17 16 14 13 11 10 10 12 13 12 12 11 10 9 8 7 7 9 9 9 12 14 13 12 12 11 11 11 11 11 11 12 12 12 13 13 14 16 17 18 18 17 16 15 15 14 14 14 14 15 15 14 14 12 12
8 7 5 3 1 0 3 5 4 3 1 4 6 1 6 6 2 8 8 8 14 17 14 13 13 13 12 12 10 9 10 14 21 21 18 18 21 23 21 20 20 18 16 15 14 13 11 10 12 15 15 14 13 13 13 13 12 11 9 7 5 5 7 9 10 11 11 10 10 10 10 11 11 11 11 11 12 13 15 16 16 17 18 18 18 17 17 17 15 15 15 16 14 12 13 14 14
7 4 2 3 6 4 2 3 4 3 1 4 7 2 6 4 2 10 11 9 13 17 14 12 12 11 11 10 9 7 10 15 19 19 20 21 23 23 22 20 20 19 16 15 13 13 11 11 12 14 15 15 14 13 15 15 14 13 11 8 7 6 6 6 8 9 9 8 8 9 8 8 9 10 10 11 12 12 14 15 14 15 16 18 19 19 19 19 16 14 16 17 14 11 11 14 15
5 3 1 3 7 4 5 2 2 3 2 5 7 1 6 6 7 7 9 9 10 14 13 11 10 10 10 9 8 8 10 13 15 19 23 24 24 23 22 20 20 19 17 15 14 13 12 11 12 13 14 14 13 13 15 16 14 13 11 9 9 10 9 8 7 6 6 6 5 6 4 3 5 8 10 11 12 12 13 14 12 12 14 16 19 19 19 20 18 14 15 16 16 13 12 14 15
3 4 3 3 3 5 6 1 4 3 2 6 8 2 6 8 9 4 8 10 10 13 13 11 10 9 9 8 9 9 9 13 18 23 26 26 26 24 23 22 20 19 18 16 14 12 12 12 12 12 12 13 12 12 14 15 14 12 11 10 11 12 11 8 6 4 6 6 5 4 3 2 3 5 8 10 11 11 12 13 10 9 10 13 16 18 19 21 21 17 14 15 17 15 13 13 14
3 1 3 3 0 5 7 3 6 6 2 4 8 3 6 7 9 7 6 11 12 12 12 12 12 10 10 8 9 9 8 12 19 24 27 28 27 25 25 25 22 21 20 17 15 13 12 13 13 13 12 12 12 11 10 10 9 10 11 11 12 13 10 7 5 4 6 8 6 4 4 3 2 2 2 5 8 9 10 11 11 9 8 10 13 17 20 22 22 18 14 16 19 16 13 11 10
4 1 2 3 2 4 6 5 6 9 2 2 7 4 4 5 7 8 3 12 14 12 11 12 12 11 10 8 9 10 8 9 13 19 27 30 29 28 28 27 25 23 21 19 18 16 15 14 14 14 13 13 12 11 10 9 8 10 11 11 11 11 8 6 6 7 8 9 7 6 5 3 2 1 1 2 4 6 7 9 12 11 8 9 11 15 19 20 21 20 15 17 19 16 12 11 9
4 2 1 3 3 2 3 6 7 7 7 6 8 6 5 5 5 7 5 11 15 12 13 12 11 11 9 9 9 10 11 10 10 16 26 31 32 31 30 30 27 25 23 21 20 19 18 16 15 15 14 14 14 14 15 14 13 12 11 9 8 9 8 8 9 10 12 11 8 6 4 3 2 2 2 1 2 4 4 5 9 11 9 9 11 13 16 16 18 19 17 17 19 17 13 12 11
2 2 1 3 2 1 3 5 5 6 10 9 8 7 9 7 5 6 6 9 12 11 11 11 11 11 10 10 11 11 12 12 12 20 29 32 33 33 32 31 29 26 24 22 22 21 20 19 18 17 16 17 17 16 15 14 13 12 11 10 9 9 9 8 9 10 11 9 7 5 4 3 1 1 3 4 4 4 3 2 4 8 8 9 13 15 15 13 14 15 15 16 18 18 16 14 13
4 3 3 1 3 3 5 6 5 4 8 7 8 9 10 7 7 6 5 4 7 10 10 9 11 12 11 10 11 11 13 13 16 24 30 32 34 34 32 33 30 27 25 24 24 24 24 24 22 21 21 20 18 16 14 13 12 11 11 10 9 9 8 6 5 6 7 6 5 3 2 2 2 1 2 4 5 5 4 3 1 2 4 7 12 15 15 13 11 11 12 14 15 17 18 17 16
4 1 2 2 3 4 5 5 7 2 4 0 1 4 6 6 6 7 6 4 2 7 10 10 11 11 11 12 12 13 14 13 16 23 28 30 32 32 31 32 31 28 27 27 27 27 27 27 26 25 24 21 18 16 14 13 12 11 12 11 9 7 7 4 3 4 4 4 3 2 2 2 3 2 1 2 3 4 5 5 4 3 1 3 5 8 11 13 11 8 10 12 13 16 17 16 15
4 3 2 3 2 3 6 4 7 4 4 3 4 3 6 6 5 7 5 3 5 7 8 10 13 12 11 13 14 14 12 9 11 16 20 24 27 29 31 33 33 32 30 30 30 30 28 27 27 27 25 22 19 17 15 13 12 13 13 12 9 7 6 5 5 6 5 4 4 4 3 1 2 2 2 4 4 4 4 4 4 5 4 2 2 4 5 9 9 8 9 10 11 15 18 16 11
4 3 2 3 2 2 5 5 7 5 4 2 3 3 5 7 5 6 5 4 6 7 7 8 11 12 11 12 12 12 10 8 9 11 15 22 26 28 30 32 34 34 33 33 32 32 29 27 27 27 25 23 19 17 16 14 13 13 13 11 10 8 7 6 7 8 7 6 6 5 3 2 2 3 2 4 5 6 5 5 5 6 7 7 7 6 4 4 7 9 9 9 10 12 16 17 14
3 2 2 2 4 1 2 5 7 6 3 2 1 4 5 6 5 5 6 6 5 6 6 6 7 11 12 13 13 13 12 11 12 12 14 19 22 25 28 30 31 32 32 33 33 32 30 29 28 26 25 23 19 17 17 16 14 14 13 11 10 9 8 7 7 7 6 5 5 4 3 1 0 2 3 2 4 6 5 5 5 5 6 7 8 8 6 3 3 5 7 8 9 10 11 12 14
2 2 3 3 5 2 4 4 5 6 5 1 3 5 5 4 5 6 4 2 2 5 6 7 7 8 9 10 10 11 12 13 15 14 13 15 19 24 28 29 30 31 33 34 35 34 33 31 29 26 24 21 19 18 18 18 17 15 14 12 11 10 9 7 7 6 6 5 4 4 3 1 2 2 3 3 2 3 3 3 2 2 3 3 5 6 7 6 6 7 6 6 8 10 11 10 11
4 3 6 6 6 6 3 2 3 4 5 4 1 2 5 5 4 7 6 4 5 4 4 8 11 8 7 7 7 9 11 13 16 17 16 17 21 24 25 27 29 31 34 36 37 36 34 33 30 26 24 21 20 20 21 21 19 16 15 15 13 13 12 10 8 7 6 5 4 4 2 3 5 6 5 3 2 2 3 3 2 0 1 2 3 4 5 5 6 7 9 8 8 9 11 12 12
2 4 6 5 4 4 1 3 4 2 2 4 1 3 4 6 4 7 6 5 8 6 4 8 11 8 7 8 10 10 10 11 13 15 17 17 19 21 21 26 30 32 34 36 37 35 34 33 30 27 24 22 23 22 21 21 19 17 16 16 16 15 14 11 9 8 7 6 5 4 3 4 5 5 6 6 5 3 2 2 2 1 1 3 4 5 6 6 6 7 8 9 9 10 10 10 12
3 6 5 4 2 2 2 4 4 2 3 4 4 3 3 4 5 7 5 5 9 9 8 9 10 10 8 10 12 11 10 12 12 14 16 17 20 23 24 28 32 34 35 35 36 35 34 33 30 27 25 24 24 23 22 21 20 19 17 17 17 16 13 11 11 10 8 7 6 6 5 4 4 4 4 5 5 4 3 2 1 1 0 1 3 5 6 8 8 9 9 10 10 10 11 11 12
6 6 5 4 3 4 4 5 3 1 2 4 6 1 1 5 5 5 3 4 8 9 10 9 10 12 10 10 11 10 10 13 15 16 17 18 21 26 30 32 33 34 35 36 37 36 35 33 31 28 27 26 25 24 23 21 20 20 18 18 18 17 14 12 12 10 9 8 7 7 5 4 3 3 3 3 3 3 3 3 2 2 2 2 2 3 5 7 9 10 11 12 13 13 13 13 13
6 3 2 1 2 2 3 4 3 3 3 4 7 1 0 5 5 5 3 3 6 8 9 8 10 12 11 11 11 9 8 10 13 16 17 20 25 30 31 32 32 33 35 36 35 34 34 33 32 30 29 28 26 25 24 22 22 21 20 20 19 18 17 15 13 11 10 8 7 7 6 5 5 3 2 2 2 2 3 3 3 3 4 4 5 5 6 7 8 9 11 12 13 14 15 15 15
2 3 2 4 5 4 3 3 4 3 2 6 7 3 3 3 6 4 3 4 5 6 8 9 8 10 11 10 10 10 8 9 11 14 16 21 27 29 29 29 30 31 32 31 31 33 34 34 33 32 31 29 28 26 25 24 23 22 22 21 20 20 20 19 16 14 12 11 9 8 7 7 7 5 4 2 0 1 1 2 2 3 5 6 7 8 8 9 9 10 11 12 13 15 16 16 17
3 3 3 3 4 5 5 4 4 2 4 7 6 2 5 2 6 5 6 6 6 6 8 11 10 8 10 10 9 10 8 9 11 12 13 16 18 20 22 25 28 28 28 30 32 33 34 34 34 33 32 31 29 28 27 26 25 24 24 22 20 21 22 22 20 17 16 14 12 10 8 8 8 7 6 4 2 2 2 2 2 3 5 7 9 9 10 11 12 13 14 15 16 16 17 17 17
5 3 4 3 2 4 3 4 2 2 5 6 4 1 4 4 8 8 8 8 7 7 7 9 9 8 9 10 9 8 7 8 10 10 11 11 11 15 21 24 26 28 30 32 34 35 35 35 35 34 34 33 31 30 29 28 27 26 25 24 23 22 22 23 22 19 18 17 15 13 11 11 10 9 9 7 5 5 4 4 3 4 7 9 10 10 12 13 15 16 16 16 17 17 17 17 17
4 4 3 3 2 2 2 4 2 2 5 6 4 3 2 4 5 7 7 7 8 8 8 8 8 8 8 8 7 7 7 8 9 10 11 12 12 16 23 27 28 30 33 35 36 37 36 35 36 36 35 34 33 32 31 30 29 28 27 26 25 24 23 24 23 21 19 19 18 16 14 13 12 11 10 9 8 7 6 5 5 7 8 10 10 11 13 14 15 16 16 16 17 17 17 17 17
3 5 5 4 3 3 3 3 3 4 4 4 4 2 3 2 4 6 3 5 6 5 5 7 6 5 5 2 2 6 7 7 8 9 11 13 16 21 25 27 30 32 34 35 36 37 36 35 36 37 36 35 35 34 33 32 31 29 28 27 27 26 24 24 24 22 20 21 20 17 15 14 13 12 11 9 9 8 7 7 8 8 9 9 10 11 12 12 14 15 16 16 16 16 17 18 18
2 2 5 2 4 5 3 3 5 4 1 3 2 2 4 4 5 7 5 6 8 10 10 10 10 9 8 7 5 2 2 4 6 9 12 14 18 23 26 28 31 32 33 33 33 34 36 36 36 37 37 37 37 36 35 34 32 30 29 28 28 27 25 25 25 23 22 22 21 19 17 16 15 14 13 12 11 11 10 10 10 10 9 10 10 10 10 11 12 13 15 16 16 17 17 18 18
2 1 3 3 3 6 3 3 1 3 1 4 1 2 5 3 4 6 7 9 10 11 10 9 9 11 11 8 7 7 6 4 1 4 8 11 15 21 25 28 29 29 29 31 33 35 38 38 37 37 35 35 36 37 36 35 33 32 30 29 28 27 27 26 26 24 23 22 21 21 19 17 17 17 16 14 13 12 11 11 10 10 10 10 10 9 9 10 12 13 14 16 17 17 19 19 19
2 1 5 3 2 3 2 0 3 2 1 4 2 3 4 2 3 5 9 10 9 9 9 10 11 12 11 9 9 9 8 7 5 3 3 6 11 17 22 25 28 30 32 34 36 38 39 39 38 37 35 34 35 36 36 35 34 33 32 30 29 29 28 27 26 25 23 22 22 21 20 18 18 18 17 15 13 12 11 10 10 9 9 9 9 9 9 10 12 13 14 15 16 17 19 20 20
4 1 3 1 1 1 0 1 1 1 2 3 4 4 3 2 4 2 7 6 6 7 8 11 12 11 10 10 10 10 9 8 7 5 3 2 5 13 20 23 26 28 31 35 36 36 36 37 37 38 37 37 36 36 36 35 34 34 33 32 30 30 29 28 27 25 24 23 23 22 21 20 19 17 16 14 12 11 10 9 9 9 9 9 9 9 10 11 12 13 14 15 16 16 18 19 19
2 2 3 1 2 3 2 2 3 3 3 3 3 4 3 4 5 3 5 3 5 7 7 9 9 10 10 10 10 9 8 8 7 6 4 3 3 7 13 20 26 29 31 33 34 34 35 35 35 36 36 35 35 35 36 35 35 34 34 32 31 30 29 28 27 25 24 24 23 22 21 21 19 17 14 12 11 10 9 9 9 9 9 9 10 10 11 11 11 13 14 14 15 15 17 19 20
3 4 5 4 2 0 1 1 2 3 3 3 1 3 4 5 4 6 7 4 6 7 6 6 6 8 9 8 8 8 8 8 8 8 7 5 3 5 8 10 16 25 30 31 31 33 34 34 34 35 34 34 34 34 35 36 35 34 34 33 31 30 29 28 27 25 25 24 23 22 21 20 18 15 13 11 10 10 10 9 9 9 9 10 10 10 10 11 12 14 14 14 14 14 16 18 20
3 2 3 3 3 1 1 3 2 1 3 4 3 3 6 6 3 5 7 6 6 7 7 6 5 6 7 7 7 7 7 8 7 7 7 7 6 3 5 7 9 12 19 25 29 30 31 32 34 34 34 35 35 35 35 36 35 34 34 33 32 30 29 28 27 26 24 23 22 21 20 19 17 14 12 11 10 10 9 9 9 9 9 9 10 11 11 13 14 15 15 14 13 14 15 17 19
Wind_Direction
306 297 287 313 319 328 339 82 63 322 86 275 266 249 256 219 219 269 224 197 357 360 67 91 97 107 105 110 120 94 52 89 162 142 175 157 153 165 171 182 173 165 164 161 160 160 156 151 148 140 137 137 137 140 145 147 146 147 146 147 148 149 148 142 137 134 135 132 123 118 120 121 124 127 124 121 120 122 124 124 123 120 117 112 110 107 103 103 104 99 92 96 107 113 118 120 119
307 298 299 318 318 337 276 100 90 309 46 301 281 200 252 243 226 257 209 164 117 137 104 95 94 93 108 120 109 78 47 28 88 107 107 124 136 161 175 182 172 166 165 161 162 162 157 153 150 143 139 138 138 142 149 152 151 150 149 148 150 151 152 147 141 138 138 134 128 121 122 122 123 127 125 122 118 122 125 126 125 121 119 115 113 107 104 103 107 105 95 99 109 114 120 123 123
312 315 326 339 334 73 358 40 97 158 103 254 281 235 258 276 219 107 108 122 130 150 114 100 91 85 97 84 53 68 76 33 80 90 109 126 129 156 169 173 168 168 166 162 165 164 160 154 152 147 141 140 140 145 152 157 156 153 151 150 151 153 154 152 146 144 142 139 134 126 127 125 125 128 129 126 120 121 126 127 124 124 123 117 113 108 106 104 107 110 100 101 112 118 121 126 126
319 333 337 9 35 29 49 67 151 144 157 226 268 268 291 304 146 102 107 125 142 147 110 97 73 23 76 86 75 79 108 94 92 103 114 130 141 155 162 165 166 168 166 166 167 165 163 155 153 149 143 141 143 149 153 158 158 155 152 153 155 156 157 156 151 149 146 143 138 133 132 128 127 131 135 131 122 121 127 127 125 125 122 117 114 111 110 106 107 113 106 103 115 124 124 128 130
328 344 334 59 81 24 88 124 178 148 190 206 218 279 307 18 84 102 123 128 151 130 97 85 77 54 69 87 101 91 115 111 99 104 103 123 144 154 160 164 165 168 168 169 169 168 166 156 153 151 145 142 144 151 154 157 159 157 154 156 159 158 160 159 157 154 150 147 140 136 134 132 130 134 139 138 130 124 122 121 121 121 120 120 116 113 112 110 111 115 113 106 113 128 129 130 131
339 1 33 111 117 184 109 207 238 224 222 194 217 287 300 334 68 112 110 80 57 90 89 83 101 99 71 59 49 94 139 123 111 114 117 131 146 153 157 162 164 167 170 170 172 171 165 156 153 152 146 142 145 149 154 157 159 160 156 158 160 160 164 163 161 156 152 150 143 138 136 135 134 137 141 143 140 130 124 120 120 122 121 120 116 116 115 116 118 117 118 111 111 129 137 135 134
347 2 65 63 339 91 108 212 229 252 236 193 224 274 281 293 147 128 112 90 64 75 86 94 115 98 69 64 50 73 118 120 124 130 132 137 147 150 154 159 162 165 169 171 174 171 164 159 155 152 146 143 145 148 153 156 159 161 157 157 160 161 166 168 164 158 154 154 146 141 140 138 138 141 142 146 145 136 132 129 130 129 126 122 117 118 118 120 121 119 121 117 113 128 142 141 138
356 355 66 85 9 5 116 249 237 226 242 212 225 249 260 269 204 149 129 120 116 100 101 118 109 86 55 72 78 76 98 114 126 133 136 139 146 151 155 158 158 162 168 171 174 170 163 162 159 152 146 144 145 146 151 156 159 162 161 159 161 163 167 171 168 161 157 156 150 147 145 140 141 145 145 148 147 144 140 138 141 138 136 133 122 119 120 122 120 122 123 122 121 130 143 144 138
26 100 5 93 104 321 257 280 267 237 258 250 247 249 255 264 246 188 131 109 121 113 118 139 101 96 102 83 91 89 91 114 126 132 138 142 150 154 157 158 158 160 164 169 173 169 162 164 162 153 149 147 147 146 149 155 160 163 165 163 162 165 168 173 171 166 162 158 154 151 150 144 145 150 148 151 151 151 153 151 149 145 143 140 130 122 121 124 123 128 126 126 133 137 143 144 137
40 153 114 105 99 308 295 286 271 260 259 258 259 253 249 258 248 174 130 117 124 109 119 116 93 109 120 95 95 113 112 122 125 130 139 145 150 153 156 159 161 161 162 167 171 167 161 165 164 159 156 151 149 147 148 153 159 163 166 166 165 166 167 172 173 171 167 162 157 152 153 148 149 151 149 155 154 156 165 162 153 150 147 142 136 126 121 124 127 132 130 132 142 144 144 144 138
26 308 132 95 58 259 266 265 266 268 269 281 275 265 247 238 213 135 128 129 133 125 133 103 96 113 106 98 101 123 129 127 127 133 142 144 146 148 150 155 161 162 162 166 170 165 161 164 164 164 160 155 154 149 149 152 158 163 166 169 168 168 168 171 173 173 171 166 161 155 155 154 154 154 154 157 155 157 165 165 157 158 157 152 144 130 120 120 129 137 135 137 146 149 147 146 142
62 303 83 105 190 212 228 243 274 283 285 289 269 269 256 227 142 139 137 137 140 135 144 116 122 126 103 110 123 124 128 130 134 138 143 141 140 140 142 147 153 162 164 167 168 163 162 165 164 164 162 159 157 153 153 152 155 160 165 171 171 172 172 172 174 174 173 169 165 160 157 158 159 158 159 156 154 159 161 160 160 164 166 160 149 133 126 122 131 142 141 139 149 151 150 152 147
148 222 96 145 202 198 256 264 280 300 293 269 254 266 266 229 147 151 138 137 145 141 153 133 137 122 107 128 130 124 123 135 139 138 141 136 134 133 133 137 137 150 160 165 166 163 164 167 168 164 162 162 161 158 157 155 155 158 161 167 171 176 177 177 177 175 175 174 168 163 160 161 164 161 159 157 157 160 159 158 164 165 163 164 152 139 141 133 136 148 147 143 153 158 157 160 154
180 199 121 218 268 210 267 277 285 305 284 268 264 267 273 130 132 141 128 129 144 142 137 133 131 107 112 133 123 139 126 139 142 137 138 132 132 130 127 128 128 138 151 161 163 165 169 171 173 169 167 167 166 164 162 162 159 160 161 163 166 171 175 177 178 177 181 180 171 168 166 164 168 166 159 162 165 163 162 162 168 164 162 175 166 153 153 143 146 155 156 151 158 164 164 167 164
181 215 115 190 307 315 261 243 275 273 275 287 284 264 70 65 110 117 128 124 96 117 120 131 127 102 144 158 148 171 133 137 143 139 138 133 130 127 127 126 125 136 149 161 166 171 174 174 177 175 174 172 172 171 168 168 165 165 164 164 164 166 171 174 178 182 185 182 174 171 172 172 174 174 166 169 174 173 171 170 172 165 164 181 172 159 155 152 155 156 160 157 160 167 168 169 170
173 173 92 181 266 297 263 235 284 267 271 298 291 95 85 41 74 85 110 117 113 92 95 167 188 127 163 164 147 150 131 131 139 139 139 135 129 127 132 132 130 137 147 162 171 177 179 180 181 180 181 177 178 178 175 174 171 170 166 168 167 166 170 172 178 183 185 179 175 175 176 180 181 184 180 178 180 180 181 180 178 166 171 183 176 167 163 161 162 159 158 158 162 168 164 163 172
121 110 163 237 239 247 254 259 301 278 291 311 311 80 99 72 60 76 34 89 113 86 49 45 35 124 147 140 139 138 129 127 132 136 135 133 132 132 137 141 141 141 149 159 169 177 180 184 185 185 187 186 186 183 183 181 176 175 171 173 169 168 169 171 177 180 184 179 175 179 183 187 189 193 192 188 187 185 186 186 183 171 174 187 184 178 173 167 166 166 159 158 163 167 162 160 170
103 124 192 222 233 227 204 236 273 301 302 308 319 28 108 113 105 102 63 68 92 83 72 75 62 78 102 119 133 133 130 130 130 132 130 131 132 128 133 144 147 145 151 157 167 173 176 182 184 186 189 191 195 191 191 189 184 182 178 179 174 171 171 171 175 179 185 180 177 184 189 194 195 197 196 196 196 192 190 190 190 178 174 186 190 187 183 172 167 170 163 161 165 167 168 168 174
142 166 184 224 223 222 205 246 283 309 292 289 295 298 123 131 141 127 103 99 98 89 80 88 86 84 98 119 129 131 135 136 135 134 133 137 135 128 126 136 144 146 153 157 160 163 170 177 179 185 189 192 196 196 198 198 196 191 187 188 181 174 175 173 174 180 184 181 185 192 193 195 196 198 200 201 201 196 194 195 196 186 178 184 190 191 190 177 167 168 165 164 168 174 179 178 185
204 179 210 242 232 286 272 265 283 280 296 318 322 324 130 155 163 115 122 121 114 117 121 109 111 121 124 134 134 132 134 136 141 139 139 142 141 138 131 132 136 140 150 155 153 153 158 165 168 176 183 185 190 196 201 205 204 201 196 194 187 178 177 175 174 183 187 188 192 195 195 194 192 196 202 202 198 197 196 197 200 194 186 187 190 190 191 184 169 166 167 168 173 182 187 181 182
242 173 207 232 221 293 269 268 282 276 329 358 340 20 103 160 118 122 128 117 121 145 148 138 139 144 145 150 140 132 130 134 141 141 142 144 145 144 140 137 132 131 138 142 148 157 157 154 154 159 167 172 183 196 203 207 207 206 203 198 192 184 181 178 178 185 187 190 191 191 194 193 190 191 199 201 198 198 197 197 200 197 192 191 193 193 190 186 174 168 168 172 181 187 188 179 169
279 240 229 226 209 253 257 255 267 265 1 21 4 12 11 90 76 131 136 132 169 171 159 147 148 153 152 151 141 131 132 138 143 145 147 147 149 149 144 140 133 131 133 133 138 151 162 163 158 155 162 169 179 194 199 204 205 206 205 202 196 189 187 186 185 187 189 196 197 195 192 192 192 194 200 205 206 203 199 200 202 200 197 196 198 198 194 189 178 171 171 175 184 189 186 180 169
242 268 257 242 222 235 255 256 261 250 68 34 345 346 339 68 64 129 127 154 183 165 160 152 149 150 146 143 138 137 140 144 147 152 152 150 153 152 146 142 137 133 131 135 136 135 141 150 158 160 165 174 180 188 190 195 200 205 207 205 200 193 193 196 193 189 190 199 204 206 199 192 196 203 208 210 211 209 205 206 207 204 200 200 201 197 198 197 182 173 176 178 182 187 188 188 180
209 253 260 248 229 230 244 254 265 300 96 124 314 29 9 71 96 10 30 346 159 141 142 138 133 135 136 132 132 137 139 141 146 150 148 148 152 151 147 142 138 132 126 131 139 137 131 128 136 149 162 173 177 180 181 188 196 204 206 202 198 195 195 199 201 195 189 187 196 207 206 201 203 208 212 211 213 212 210 211 211 209 203 201 202 197 197 202 192 179 180 182 185 190 193 197 196
221 235 250 246 235 225 219 215 227 90 111 139 48 36 346 68 106 76 33 95 125 127 125 123 123 126 128 124 125 129 131 136 139 141 139 141 146 146 144 142 137 132 127 128 137 141 139 132 128 134 151 159 158 158 164 179 190 198 201 197 197 201 200 200 204 205 197 189 191 199 202 205 207 210 213 212 213 215 216 216 215 212 208 205 202 199 199 204 204 194 190 192 193 199 202 207 211
224 228 239 243 241 208 190 190 189 156 134 70 49 355 317 70 93 52 21 132 123 124 128 131 133 135 134 130 134 136 137 140 138 136 132 135 141 141 141 141 137 133 131 134 143 144 145 146 131 125 138 143 139 135 143 164 183 194 198 198 203 203 199 198 202 209 208 203 203 203 201 205 210 213 216 216 216 218 219 217 216 213 210 210 206 201 200 204 212 211 206 205 204 208 213 217 225
247 239 228 224 230 200 179 163 184 197 146 94 93 283 304 335 103 78 242 154 128 125 132 141 141 145 150 144 147 146 144 147 142 135 130 133 138 138 138 139 135 134 139 142 148 150 150 151 133 128 134 137 134 128 130 136 145 164 179 193 204 198 195 195 196 208 214 213 214 216 213 213 217 219 217 219 221 218 217 216 215 213 211 209 207 205 205 205 212 218 221 220 220 226 230 235 241
283 248 201 219 304 60 160 141 173 175 124 124 120 239 313 342 95 152 191 170 137 133 140 153 151 155 157 148 150 149 145 147 142 135 135 139 140 139 138 139 136 136 146 148 148 153 156 152 138 135 137 136 134 130 129 127 125 127 130 145 167 175 189 194 192 203 211 211 216 221 223 220 218 219 216 217 220 217 217 217 214 214 213 209 208 207 209 213 218 224 228 229 234 245 251 253 253
288 248 161 306 16 22 237 172 171 138 159 155 111 3 316 328 208 164 173 174 148 142 149 161 159 159 156 149 149 151 151 148 143 141 144 146 145 143 140 142 142 141 147 151 152 154 158 156 143 141 143 139 134 128 128 128 126 121 116 115 127 143 144 151 171 187 196 202 216 219 219 217 215 221 223 219 218 218 219 220 218 219 217 215 215 209 206 215 227 235 233 230 234 247 258 257 254
288 313 45 334 14 339 265 241 175 140 171 153 112 326 284 269 247 174 162 179 155 145 157 164 162 163 158 155 154 156 157 152 149 148 149 148 148 150 147 147 149 147 148 154 159 158 162 165 152 147 149 146 136 128 128 130 132 127 122 115 116 129 128 121 134 159 176 179 194 199 190 196 212 225 227 221 216 217 220 223 226 226 221 220 222 215 206 212 227 242 237 231 233 239 252 252 253
316 341 12 25 12 286 279 264 163 179 215 139 118 196 253 261 263 215 160 172 163 157 167 166 165 169 162 160 157 157 162 160 156 152 152 152 153 157 154 152 156 156 156 160 164 164 167 170 163 154 151 150 143 135 131 131 135 137 136 128 120 123 123 120 121 143 170 163 154 155 136 140 190 216 220 221 223 221 223 224 225 224 221 222 222 217 210 210 219 235 239 238 240 241 250 252 255
3 10 329 348 226 267 299 309 172 191 256 124 128 190 256 258 265 261 169 164 173 169 171 169 169 170 163 163 157 156 166 164 158 153 154 156 159 162 159 158 164 166 165 167 169 167 167 170 169 163 157 155 146 138 137 138 145 147 141 130 124 127 126 127 124 128 162 169 157 139 132 132 151 187 210 227 234 236 234 227 220 220 223 223 220 216 216 216 218 225 232 244 250 248 253 258 259
358 78 268 278 255 295 319 314 223 196 170 156 169 175 262 259 250 266 202 169 178 173 175 175 171 171 166 163 158 159 164 165 160 157 158 160 164 167 165 167 171 172 174 175 173 169 165 167 172 170 164 160 148 134 127 128 139 142 135 124 123 131 127 118 113 112 136 155 155 143 143 143 142 141 61 270 258 267 261 240 222 215 221 228 226 220 220 221 220 223 227 242 255 254 255 264 268
328 13 324 258 236 283 299 304 276 198 161 196 197 181 225 240 236 273 265 187 180 175 177 175 172 173 167 162 165 166 166 170 171 167 165 164 167 171 172 172 174 176 179 179 176 172 167 166 170 171 166 161 148 129 117 113 119 125 124 115 116 132 124 102 104 115 129 140 143 138 150 164 148 111 67 22 330 321 292 257 222 212 214 219 225 228 226 223 220 224 229 236 245 247 249 264 275
272 299 355 307 282 253 262 282 278 187 174 187 185 201 228 245 279 292 268 194 172 170 172 168 171 176 173 169 171 173 171 175 179 174 171 168 170 174 174 173 174 176 177 176 174 170 165 161 160 160 159 155 145 133 126 123 124 125 123 113 108 127 130 110 104 115 126 136 143 142 157 178 186 80 65 64 42 13 348 318 223 223 228 214 215 224 225 224 223 225 230 232 235 236 238 253 272
198 227 159 225 286 285 265 268 284 186 169 174 176 203 224 240 283 283 258 215 152 154 160 168 179 181 180 176 177 178 176 183 183 177 173 171 173 174 173 171 172 174 175 174 172 169 163 156 153 152 151 151 147 145 144 141 140 138 140 133 118 124 134 129 111 111 121 129 135 153 191 206 216 238 49 59 53 34 13 1 342 256 255 224 226 234 229 223 222 228 236 238 237 236 238 244 257
162 126 118 231 268 297 281 278 318 359 136 320 175 211 251 255 280 277 266 291 210 170 165 175 187 186 184 183 183 183 184 186 179 176 176 174 174 173 170 169 170 171 173 173 173 170 165 160 157 154 153 154 155 157 158 158 156 151 152 148 136 132 134 131 121 115 123 128 142 176 203 231 245 258 354 38 54 50 35 18 15 8 300 224 248 264 245 224 210 216 239 247 244 240 243 247 253
116 104 66 312 289 292 288 285 324 6 104 340 17 42 300 285 285 288 289 289 250 217 183 183 190 190 192 188 187 187 186 177 164 173 177 172 172 171 168 169 170 171 172 174 174 171 169 166 161 158 158 160 161 163 165 168 166 159 157 150 141 137 127 114 109 109 107 106 132 158 158 156 198 181 78 52 62 75 71 55 39 28 21 23 13 343 281 240 223 225 242 252 248 241 244 248 253
87 90 69 317 283 292 305 312 329 11 84 289 353 39 289 278 267 265 263 245 249 234 202 197 194 191 195 190 189 189 179 161 159 171 177 175 174 171 169 171 174 174 173 175 175 173 173 171 166 163 162 163 166 171 174 175 169 164 164 152 141 139 131 126 118 111 107 106 117 135 139 131 145 157 130 63 67 78 77 75 71 55 40 34 32 24 358 274 250 254 259 262 259 253 255 254 250
86 93 81 285 283 348 297 305 329 359 49 181 48 11 291 289 297 267 229 216 251 264 238 228 199 193 201 194 189 187 173 162 168 174 179 178 174 172 173 174 174 173 174 176 177 177 178 176 173 171 169 167 170 177 183 183 171 164 164 154 146 145 139 138 129 118 119 125 129 135 144 153 142 179 182 111 68 74 76 77 78 73 60 45 38 37 36 21 302 287 285 281 275 272 273 274 265
292 166 149 234 276 255 209 267 324 352 351 17 77 12 316 308 320 295 272 214 259 272 262 266 241 213 212 200 188 185 174 167 171 175 180 177 176 180 179 176 174 174 176 179 180 181 182 181 178 176 173 170 171 176 182 182 172 164 163 156 149 149 151 156 157 149 142 144 154 160 172 175 69 102 167 175 86 68 65 64 71 72 62 38 27 33 32 24 17 12 356 329 305 288 281 285 287
308 240 200 212 241 250 249 324 6 27 346 303 81 20 299 311 313 278 286 313 301 265 225 247 250 229 201 193 190 188 183 177 172 173 179 182 183 183 179 175 175 177 180 182 183 185 185 184 181 179 176 173 172 175 178 179 176 172 172 171 166 163 167 175 179 175 169 165 164 172 175 117 98 88 100 125 119 84 67 62 69 44 306 318 332 345 352 354 358 8 11 6 350 323 298 286 288
313 250 206 193 208 236 270 71 83 100 259 283 54 150 255 309 304 261 267 296 294 285 248 240 247 234 189 187 198 191 183 179 175 174 179 184 182 177 177 179 179 182 184 184 186 188 189 188 186 184 182 178 177 180 183 183 183 183 184 185 184 179 176 178 181 181 182 181 175 176 157 115 103 92 93 100 99 95 93 86 82 87 261 289 301 309 321 329 331 334 344 353 357 353 339 313 304
239 244 194 191 239 229 184 110 106 172 226 316 3 125 223 286 270 261 278 300 295 291 274 249 241 234 201 194 203 191 175 169 171 176 182 185 182 178 180 183 185 185 184 184 187 190 191 192 192 191 189 185 183 187 190 191 189 188 188 188 189 189 182 176 180 182 181 178 173 169 156 124 99 86 89 97 98 99 112 125 102 82 76 297 293 298 308 312 314 312 313 321 327 336 345 340 331
242 236 200 220 225 184 155 105 93 98 75 319 311 19 243 270 272 287 309 292 287 285 275 259 242 233 210 200 206 194 175 169 170 176 184 188 186 183 183 185 187 186 184 186 189 191 192 194 194 194 194 192 191 191 193 194 193 190 187 186 188 191 188 183 183 184 181 177 173 169 160 153 141 108 81 74 83 90 94 95 78 58 52 25 345 326 318 314 314 312 309 312 314 316 324 332 335
242 198 168 327 60 116 112 98 93 40 50 263 269 309 261 273 283 304 321 274 270 275 275 264 243 234 216 202 206 198 172 166 175 178 183 188 187 187 185 184 186 186 186 189 189 190 192 194 195 195 196 196 196 196 196 195 195 194 191 188 189 191 193 191 187 187 191 189 185 181 171 169 171 159 134 96 79 84 77 69 62 52 39 27 15 2 350 342 334 326 320 316 316 315 313 317 324
229 111 90 18 16 21 28 60 82 53 329 256 250 208 153 285 285 261 245 248 260 275 287 284 259 236 221 208 206 203 175 158 175 181 183 188 189 187 184 182 185 186 187 188 188 190 192 194 196 197 197 199 200 201 199 197 197 198 197 194 194 195 195 195 190 189 197 199 196 192 184 181 182 184 182 168 126 137 79 40 28 21 11 2 354 347 343 340 334 327 323 319 317 317 315 314 313
75 79 81 47 342 3 18 357 38 78 261 261 262 187 132 205 272 257 249 258 266 269 275 283 269 229 217 217 211 206 185 158 169 181 183 184 182 181 180 183 185 184 186 188 189 191 192 194 196 196 197 200 202 203 202 201 202 202 201 199 200 197 195 197 196 198 202 203 204 203 196 194 197 203 202 201 214 220 241 289 319 336 339 336 334 332 329 326 320 315 313 313 313 314 315 315 313
83 90 72 78 334 4 7 315 329 213 251 259 260 132 134 227 255 256 261 269 281 285 280 280 264 222 210 220 219 214 193 160 163 174 178 176 172 175 180 184 186 185 188 189 190 191 192 194 195 197 199 201 203 204 204 205 206 206 204 202 205 202 199 201 203 206 208 208 209 208 206 205 206 211 213 217 227 230 230 237 264 298 309 316 320 321 318 315 315 315 315 313 313 314 315 315 314
127 152 126 125 119 55 292 276 287 262 263 261 247 203 218 285 265 242 248 266 284 294 298 294 272 234 217 214 208 211 202 174 166 168 171 173 176 180 182 184 187 190 192 191 191 193 193 194 196 198 201 201 203 206 206 207 210 210 207 205 208 207 205 208 209 212 213 211 210 212 213 212 211 215 219 221 225 225 222 230 259 283 293 301 306 310 313 316 319 320 319 317 314 314 314 313 312
178 167 135 140 145 147 213 228 215 247 268 280 290 245 196 208 257 261 281 308 321 341 339 337 329 296 279 276 191 203 202 176 165 166 170 178 181 183 184 186 189 193 194 193 192 192 193 196 199 200 201 201 202 206 208 209 211 212 209 208 210 212 212 212 214 217 217 212 212 214 216 218 217 216 220 220 219 224 235 254 270 279 284 292 300 308 315 320 323 322 321 319 317 316 315 315 316
265 143 102 141 182 165 190 202 189 193 263 295 297 252 213 201 270 310 9 19 20 33 25 16 14 9 5 5 13 344 249 168 167 170 172 181 185 184 185 188 193 195 194 194 192 192 194 197 200 202 203 202 202 204 208 211 212 212 211 210 212 214 215 215 216 217 216 214 214 216 216 218 217 217 221 225 228 236 248 259 269 277 286 295 303 310 316 319 320 319 319 319 320 320 318 317 319
255 148 167 221 169 142 173 256 230 110 186 272 261 248 287 330 317 332 27 38 33 36 28 25 29 32 29 17 17 15 9 23 342 209 190 187 184 186 190 191 193 194 193 194 194 195 196 198 200 202 204 204 203 205 208 211 211 211 212 212 212 215 216 216 216 214 214 215 216 217 217 215 214 217 222 227 232 240 250 258 268 278 288 297 304 307 310 315 316 316 315 315 316 318 316 314 315
76 258 228 226 61 85 129 261 341 28 245 274 297 241 274 335 297 331 27 32 28 30 29 31 33 39 37 20 22 24 16 19 12 343 253 215 192 188 193 196 195 193 193 195 197 198 198 199 201 201 202 204 205 206 208 210 211 211 212 212 214 216 218 219 219 218 217 216 214 215 215 212 210 214 218 223 230 238 248 259 270 282 289 294 298 299 302 307 311 312 313 312 313 315 313 311 311
86 252 254 175 72 296 44 134 243 265 240 279 311 282 256 210 234 345 34 31 33 36 37 39 32 32 36 26 25 27 19 15 10 14 20 282 233 203 194 196 199 197 196 197 197 198 198 200 202 202 203 205 206 207 208 210 211 212 213 214 216 219 221 223 223 222 221 218 216 214 213 211 210 213 217 222 230 238 248 259 270 282 289 293 293 294 298 302 304 306 307 309 310 311 312 312 313
51 1 350 38 163 184 180 177 177 177 208 245 307 315 287 230 215 131 83 58 67 67 55 50 35 25 29 25 23 26 26 21 8 4 28 46 318 255 214 200 198 197 198 199 197 197 198 200 201 202 204 205 206 206 207 209 212 213 214 215 218 221 223 225 225 224 222 221 220 217 215 214 214 216 221 226 232 239 248 261 274 284 289 292 293 293 296 298 300 303 303 303 305 308 309 310 312
356 350 343 334 320 269 240 266 139 139 165 186 223 275 266 250 219 139 118 101 90 94 85 68 49 32 26 21 19 18 16 21 21 7 1 25 20 298 272 243 217 204 199 198 197 197 198 199 200 201 202 203 205 206 206 208 212 213 214 215 218 221 223 225 225 225 225 224 223 220 218 218 218 222 227 232 237 245 257 270 279 285 289 291 293 296 299 300 303 304 302 299 300 303 305 307 309
188 228 271 274 272 284 319 291 294 101 140 164 170 234 261 254 213 147 124 110 102 105 103 87 61 43 27 15 13 12 11 11 16 16 3 360 2 323 275 279 272 235 209 199 197 197 197 198 200 200 201 202 205 206 206 209 211 212 215 217 219 221 223 224 225 225 226 224 223 221 219 220 222 226 232 237 243 253 266 276 280 283 286 289 296 301 305 308 308 305 301 298 298 300 303 304 304